Muskegon, MI

3:55 AM EDT on August 24, 2017 (GMT -0400)
Muskegon County

Weather History for KMKG - February, 2013

Change the Weather History Date:

Wednesday, February 6, 2013

  Actual Average Record
Temperature  
Mean Temperature 23 °F 26 °F  
Max Temperature 32 °F 31 °F 50 °F (1946)
Min Temperature 13 °F 20 °F -15 °F (1899)
Degree Days  
Heating Degree Days 42 39  
Month to date heating degree days 290 238  
Since 1 July heating degree days 3603 3910  
Cooling Degree Days 0 0  
Month to date cooling degree days 0 0  
Year to date cooling degree days 0 0  
Moisture  
Dew Point 18 °F    
Average Humidity 69    
Maximum Humidity 80    
Minimum Humidity 57    
Precipitation  
Precipitation T in 0.06 in 0.99 in (2008)
Month to date precipitation 0.53 0.34  
Year to date precipitation 6.01 2.37  
Snow  
Snow T in 0.80 in 8.80 in (2008)
Month to date snowfall 14.0 4.9  
Since 1 July snowfall 53.6 68.0  
Snow Depth 7.00 in    
Sea Level Pressure  
Sea Level Pressure 30.20 in    
Wind  
Wind Speed 7 mph (SSE)    
Max Wind Speed 16 mph    
Max Gust Speed 21 mph    
Visibility 10 miles    
Events      
T = Trace of Precipitation, MM = Missing Value Source: NWS Daily Summary

Daily Weather History Graph

Daily Weather History Graph

Search for Another Location

Airport or City:

Trip Planner

Search our weather history database for the weather conditions in past years. The results will help you decide how hot, cold, wet, or windy it might be!

Date:

Astronomy

Feb. 06, 2013 Rise Set
Actual Time 7:54 AM EST 6:04 PM EST
Civil Twilight 7:24 AM EST 6:34 PM EST
Nautical Twilight 6:50 AM EST 7:07 PM EST
Astronomical Twilight 6:17 AM EST 7:41 PM EST
Moon 4:40 AM EST (2/6) 2:19 PM EST (2/6)
Length of Visible Light 11h 09m
Length of Day
10h 10m
Waning Crescent, 17% of the Moon is Illuminated
Feb 6
Waning Crescent
Feb 10
New
Feb 17
First Quarter
Feb 25
Full
Mar 4
Last Quarter

Hourly Weather History & Observations

Time (EST) Temp. Windchill Dew Point Humidity Pressure Visibility Wind Dir Wind Speed Gust Speed Precip Events Conditions
12:55 AM 26.1 °F 19.4 °F 16.0 °F 66% 30.07 in 10.0 mi NNW 5.8 mph - N/A   Overcast
1:55 AM 26.1 °F 21.9 °F 15.1 °F 63% 30.09 in 10.0 mi NNW 3.5 mph - N/A   Overcast
2:55 AM 24.1 °F - 15.1 °F 69% 30.11 in 10.0 mi Calm Calm - N/A   Overcast
3:55 AM 24.1 °F 18.2 °F 14.0 °F 65% 30.12 in 10.0 mi WNW 4.6 mph - N/A   Overcast
4:55 AM 26.1 °F 19.4 °F 14.0 °F 60% 30.15 in 10.0 mi NNW 5.8 mph - N/A   Overcast
5:55 AM 25.0 °F 20.7 °F 12.9 °F 60% 30.17 in 10.0 mi North 3.5 mph - N/A   Overcast
6:55 AM 21.9 °F 15.7 °F 14.0 °F 72% 30.19 in 10.0 mi East 4.6 mph - N/A   Overcast
7:55 AM 19.0 °F 11.1 °F 12.9 °F 77% 30.21 in 10.0 mi ESE 5.8 mph - N/A   Mostly Cloudy
8:55 AM 17.1 °F 8.7 °F 12.9 °F 84% 30.23 in 10.0 mi ESE 5.8 mph - N/A   Mostly Cloudy
9:55 AM 21.9 °F 12.5 °F 15.1 °F 75% 30.26 in 10.0 mi SE 8.1 mph - N/A   Overcast
10:55 AM 25.0 °F 17.1 °F 17.1 °F 72% 30.26 in 10.0 mi ESE 6.9 mph - N/A   Overcast
11:55 AM 28.9 °F 21.1 °F 18.0 °F 64% 30.27 in 10.0 mi South 8.1 mph - N/A   Mostly Cloudy
12:55 PM 30.0 °F 21.7 °F 17.1 °F 59% 30.25 in 10.0 mi SW 9.2 mph - N/A   Mostly Cloudy
1:55 PM 30.9 °F 22.8 °F 19.0 °F 61% 30.24 in 10.0 mi SSW 9.2 mph - N/A   Overcast
2:55 PM 32.0 °F 22.5 °F 19.0 °F 59% 30.23 in 10.0 mi SSW 12.7 mph - N/A   Overcast
3:55 PM 32.0 °F 22.5 °F 19.9 °F 61% 30.25 in 10.0 mi SW 12.7 mph - N/A   Overcast
4:09 PM 32.0 °F 23.6 °F 21.2 °F 64% 30.21 in 10.0 mi SW 10.4 mph - N/A   Overcast
4:46 PM 32.0 °F 24.2 °F 19.4 °F 60% 30.20 in 10.0 mi SSW 9.2 mph - N/A   Mostly Cloudy
4:55 PM 30.9 °F 24.3 °F 19.9 °F 64% 30.23 in 10.0 mi SSW 6.9 mph - N/A   Mostly Cloudy
5:34 PM 30.2 °F 21.9 °F 21.2 °F 69% 30.21 in 10.0 mi South 9.2 mph - N/A   Mostly Cloudy
5:43 PM 30.2 °F 22.6 °F 21.2 °F 69% 30.21 in 10.0 mi South 8.1 mph - N/A   Scattered Clouds
5:55 PM 30.0 °F 24.1 °F 21.0 °F 69% 30.24 in 10.0 mi South 5.8 mph - N/A   Mostly Cloudy
6:55 PM 30.9 °F 25.2 °F 21.0 °F 67% 30.23 in 10.0 mi SE 5.8 mph - N/A   Overcast
7:55 PM 30.9 °F 25.2 °F 21.0 °F 67% 30.22 in 10.0 mi SE 5.8 mph - N/A   Overcast
8:55 PM 30.0 °F 22.4 °F 21.0 °F 69% 30.20 in 10.0 mi ESE 8.1 mph - N/A   Overcast
9:55 PM 30.0 °F 23.2 °F 19.9 °F 66% 30.22 in 10.0 mi SE 6.9 mph - N/A   Overcast
10:55 PM 30.0 °F 21.7 °F 19.9 °F 66% 30.20 in 10.0 mi SE 9.2 mph - N/A   Overcast
11:55 PM 30.0 °F 21.1 °F 19.9 °F 66% 30.20 in 9.0 mi SE 10.4 mph - N/A   Overcast